Stations météo

réclame
Mon MeteoGroup
Isola Di Salina, Italie (16415): Température de l'air: 17.10.2017 10:00:00 - 23.10.2017 10:00:00 (CEST)Isola Di Salina, Italie (16415): Vitesse du vent: 17.10.2017 10:00:00 - 23.10.2017 10:00:00 (CEST)Isola Di Salina, Italie (16415): Direction du vent: 17.10.2017 10:00:00 - 23.10.2017 10:00:00 (CEST)Isola Di Salina, Italie (16415): reduced air pressure: 17.10.2017 10:00:00 - 23.10.2017 10:00:00 (CEST)Isola Di Salina, Italie (16415): Quantités de précipitations: 17.10.2017 10:00:00 - 23.10.2017 10:00:00 (CEST)
Date & Time tt [°C] ff [km/h] ff [knt] dd ppp [hPa] rr [mm]
23.10.2017 10:00:00 - - - - - -
23.10.2017 09:00:00 18,0 29 16 WNW 1010,8 -
23.10.2017 08:00:00 17,4 34 18 WNW 1010,7 -
23.10.2017 07:00:00 17,3 34 18 WNW 1011,2 -
23.10.2017 06:00:00 17,4 29 16 NW 1011,6 -
23.10.2017 05:00:00 16,8 16 9 WNW 1011,9 -
23.10.2017 04:00:00 17,5 18 10 WSW 1012,2 -
23.10.2017 03:00:00 18,3 15 8 W 1012,6 -
23.10.2017 02:00:00 19,0 16 9 W 1013,6 -
23.10.2017 01:00:00 18,7 18 10 W 1014,3 -
23.10.2017 00:00:00 18,1 22 12 W 1014,6 -
22.10.2017 23:00:00 19,4 15 8 W 1014,6 -
22.10.2017 22:00:00 19,5 15 8 N 1014,9 -
22.10.2017 21:00:00 19,2 16 9 W 1015,5 -
22.10.2017 20:00:00 19,0 15 8 W 1015,6 -
22.10.2017 19:00:00 19,2 8 4 WNW 1016,0 -
22.10.2017 18:00:00 19,5 2 1 SW 1016,7 -
22.10.2017 17:00:00 19,9 11 6 NW 1016,9 -
22.10.2017 16:00:00 21,1 11 6 NNW 1017,4 -
22.10.2017 15:00:00 21,6 9 5 NNW 1018,0 -
22.10.2017 14:00:00 22,0 5 3 N 1018,6 0,0
22.10.2017 13:00:00 22,5 5 3 SSE 1019,5 -
22.10.2017 12:00:00 22,0 9 5 NW 1020,2 -
22.10.2017 11:00:00 21,2 4 2 NE 1020,6 -
22.10.2017 10:00:00 21,0 8 4 S 1020,6 -
22.10.2017 09:00:00 18,6 5 3 WNW 1020,7 -
22.10.2017 08:00:00 17,4 8 4 WSW 1020,5 0,0
22.10.2017 07:00:00 17,3 9 5 WSW 1020,5 -
22.10.2017 06:00:00 17,4 9 5 W 1020,5 -
22.10.2017 05:00:00 17,1 8 4 W 1020,6 -
22.10.2017 04:00:00 17,0 5 3 W 1020,8 -
22.10.2017 03:00:00 17,2 5 3 W 1021,0 -
22.10.2017 02:00:00 17,5 5 3 W 1021,3 0,0
22.10.2017 01:00:00 17,6 8 4 W 1021,5 -
22.10.2017 00:00:00 17,6 8 4 W 1021,5 -
21.10.2017 23:00:00 17,6 5 3 W 1021,5 -
21.10.2017 22:00:00 17,8 5 3 W 1021,4 -
21.10.2017 21:00:00 18,1 8 4 W 1021,3 -
21.10.2017 20:00:00 18,4 8 4 W 1021,2 0,0
21.10.2017 19:00:00 18,5 9 5 WNW 1021,0 -
21.10.2017 18:00:00 19,5 9 5 NW 1020,9 -
21.10.2017 17:00:00 20,2 9 5 NW 1020,9 -
21.10.2017 16:00:00 21,3 11 6 NNW 1020,7 -
21.10.2017 15:00:00 22,4 2 1 NE 1020,6 -
21.10.2017 14:00:00 23,4 4 2 SE 1020,8 0,0
21.10.2017 13:00:00 22,6 4 2 E 1021,4 -
21.10.2017 12:00:00 23,0 4 2 SE 1021,7 -
21.10.2017 11:00:00 22,3 8 4 SE 1021,5 -
21.10.2017 10:00:00 21,5 9 5 SE 1021,2 -
21.10.2017 09:00:00 19,6 8 4 SE 1020,9 -
21.10.2017 08:00:00 18,0 8 4 S 1020,3 0,0
21.10.2017 07:00:00 17,8 5 3 S 1020,0 -
21.10.2017 06:00:00 17,9 4 2 S 1020,1 -
21.10.2017 05:00:00 18,3 5 3 S 1020,0 -
21.10.2017 04:00:00 17,9 9 5 S 1019,9 -
21.10.2017 03:00:00 18,2 4 2 SE 1020,0 -
21.10.2017 02:00:00 18,4 4 2 SSE 1020,1 0,0
21.10.2017 01:00:00 18,4 5 3 S 1020,2 -
21.10.2017 00:00:00 19,0 11 6 S 1020,2 -
20.10.2017 23:00:00 19,0 5 3 SE 1020,2 -
20.10.2017 22:00:00 18,9 9 5 S 1020,1 -
20.10.2017 21:00:00 19,2 9 5 S 1019,7 -
20.10.2017 20:00:00 19,4 13 7 S 1019,2 0,0
20.10.2017 19:00:00 19,6 13 7 S 1018,9 -
20.10.2017 18:00:00 20,1 8 4 S 1018,6 -
20.10.2017 17:00:00 21,3 5 3 SSE 1018,5 -
20.10.2017 16:00:00 22,4 2 1 E 1018,2 -
20.10.2017 15:00:00 21,6 2 1 N 1018,4 -
20.10.2017 14:00:00 22,4 5 3 NNW 1018,6 0,0
20.10.2017 13:00:00 21,8 4 2 N 1018,9 -
20.10.2017 12:00:00 22,1 4 2 E 1019,1 -
20.10.2017 11:00:00 21,4 2 1 ENE 1018,6 -
20.10.2017 10:00:00 21,4 4 2 SE 1018,2 -
20.10.2017 09:00:00 19,1 2 1 SE 1017,9 -
20.10.2017 08:00:00 17,5 0 0 N 1017,6 0,0
20.10.2017 07:00:00 17,1 2 1 WNW 1017,2 -
20.10.2017 06:00:00 17,2 9 5 WNW 1017,1 -
20.10.2017 05:00:00 17,2 9 5 W 1017,3 -
20.10.2017 04:00:00 17,0 0 0 N 1017,3 -
20.10.2017 03:00:00 16,8 8 4 W 1017,4 -
20.10.2017 02:00:00 17,3 0 0 N 1017,2 0,0
20.10.2017 01:00:00 18,0 8 4 S 1017,2 -
20.10.2017 00:00:00 18,0 9 5 SSW 1017,3 -
19.10.2017 23:00:00 18,2 16 9 S 1017,5 -
19.10.2017 22:00:00 18,3 15 8 S 1017,6 -
19.10.2017 21:00:00 18,2 11 6 S 1017,8 -
19.10.2017 20:00:00 18,1 15 8 S 1017,8 0,0
19.10.2017 19:00:00 18,1 11 6 S 1017,7 -
19.10.2017 18:00:00 18,7 5 3 SE 1017,6 -
19.10.2017 17:00:00 19,5 4 2 SE 1017,7 -
19.10.2017 16:00:00 21,6 4 2 ENE 1017,9 -
19.10.2017 15:00:00 21,3 4 2 E 1018,0 -
19.10.2017 14:00:00 21,2 4 2 N 1018,4 0,0
19.10.2017 13:00:00 20,6 4 2 ENE 1018,9 -
19.10.2017 12:00:00 20,7 4 2 ENE 1019,2 -
19.10.2017 11:00:00 20,1 4 2 E 1019,1 -
19.10.2017 10:00:00 20,0 5 3 SE 1018,9 -
19.10.2017 09:00:00 18,3 5 3 SSE 1018,7 -
19.10.2017 08:00:00 16,2 5 3 S 1018,3 -
19.10.2017 07:00:00 15,9 4 2 SSW 1018,4 -
19.10.2017 06:00:00 15,5 2 1 SSW 1018,6 -
19.10.2017 05:00:00 15,4 0 0 N 1018,6 -
19.10.2017 04:00:00 15,4 0 0 N 1018,6 -
19.10.2017 03:00:00 15,5 0 0 N 1019,0 -
19.10.2017 02:00:00 15,9 4 2 SSW 1019,2 0,0
19.10.2017 01:00:00 16,2 4 2 SSW 1019,2 -
19.10.2017 00:00:00 16,3 5 3 SSW 1019,4 -
18.10.2017 23:00:00 15,7 2 1 SSW 1019,5 -
18.10.2017 22:00:00 15,8 0 0 N 1019,6 -
18.10.2017 21:00:00 16,1 0 0 N 1019,7 -
18.10.2017 20:00:00 16,5 0 0 N 1019,5 0,0
18.10.2017 19:00:00 17,0 0 0 N 1019,4 -
18.10.2017 18:00:00 17,9 4 2 WNW 1019,4 -
18.10.2017 17:00:00 18,9 8 4 NNW 1019,3 -
18.10.2017 16:00:00 19,9 9 5 NNW 1019,5 -
18.10.2017 15:00:00 21,0 8 4 N 1019,8 -
18.10.2017 14:00:00 20,9 8 4 N 1020,3 0,0
18.10.2017 13:00:00 20,4 4 2 NNW 1020,9 -
18.10.2017 12:00:00 20,0 2 1 NNE 1021,4 -
18.10.2017 11:00:00 19,7 4 2 N 1021,7 -
18.10.2017 10:00:00 18,8 2 1 NNW 1021,7 -
18.10.2017 09:00:00 17,3 2 1 S 1021,6 -
18.10.2017 08:00:00 15,3 0 0 N 1021,3 -
18.10.2017 07:00:00 15,3 2 1 SSW 1021,3 -
18.10.2017 06:00:00 15,6 4 2 SW 1021,4 -
18.10.2017 05:00:00 15,8 2 1 W 1021,6 -
18.10.2017 04:00:00 15,7 0 0 N 1022,0 -
18.10.2017 03:00:00 15,8 0 0 N 1022,5 -
18.10.2017 02:00:00 15,8 0 0 N 1022,9 0,0
18.10.2017 01:00:00 16,4 2 1 SW 1023,1 -
18.10.2017 00:00:00 16,1 4 2 SSW 1023,4 -
17.10.2017 23:00:00 16,3 4 2 SSW 1023,6 -
17.10.2017 22:00:00 16,5 0 0 N 1023,6 -
17.10.2017 21:00:00 16,7 0 0 N 1023,6 -
17.10.2017 20:00:00 17,0 0 0 N 1023,6 0,0
17.10.2017 19:00:00 17,5 0 0 N 1023,5 -
17.10.2017 18:00:00 18,4 2 1 NNW 1023,6 -
17.10.2017 17:00:00 19,4 4 2 NNW 1023,8 -
17.10.2017 16:00:00 21,0 8 4 N 1023,9 -
17.10.2017 15:00:00 21,7 9 5 N 1024,2 -
17.10.2017 14:00:00 21,8 8 4 N 1024,9 0,0
17.10.2017 13:00:00 21,0 4 2 N 1025,7 -
17.10.2017 12:00:00 21,2 4 2 E 1025,9 -
17.10.2017 11:00:00 21,5 4 2 ESE 1025,9 -
17.10.2017 10:00:00 20,3 8 4 SE 1026,1 -

tt = Température de l'air
ff = Vitesse du vent
dd = Direction du vent
ppp = reduced air pressure
rr = Quantités de précipitations

stations d'obs. à proximité